Time,TemperatureF,DewpointF,PressureIn,WindDirection,WindDirectionDegrees,WindSpeedMPH,WindSpeedGustMPH,Humidity,HourlyPrecipIn,Conditions,Clouds,dailyrainin,SoftwareType,DateUTC
2013-02-08 00:13:00,32.8,31.0,29.87,NNE,13,3.0,-999.0,92,-99.99,,,0.06,weatherlink.com 1.10,2013-02-08 05:13:00,
2013-02-08 00:28:00,32.8,31.0,29.86,East,91,5.0,-999.0,92,-99.99,,,0.07,weatherlink.com 1.10,2013-02-08 05:28:00,
2013-02-08 00:43:00,32.9,31.0,29.86,NNE,20,3.0,-999.0,92,-99.99,,,0.07,weatherlink.com 1.10,2013-02-08 05:43:00,
2013-02-08 00:58:00,33.0,31.0,29.84,NE,44,8.0,-999.0,93,-99.99,,,0.09,weatherlink.com 1.10,2013-02-08 05:58:00,
2013-02-08 01:13:00,32.9,31.0,29.83,ENE,64,6.0,-999.0,93,-99.99,,,0.10,weatherlink.com 1.10,2013-02-08 06:13:00,
2013-02-08 01:28:00,32.9,31.0,29.82,East,98,7.0,-999.0,93,-99.99,,,0.11,weatherlink.com 1.10,2013-02-08 06:28:00,
2013-02-08 01:43:00,32.9,31.0,29.82,East,79,6.0,-999.0,93,-99.99,,,0.12,weatherlink.com 1.10,2013-02-08 06:43:00,
2013-02-08 01:58:00,32.9,31.0,29.82,East,98,5.0,-999.0,93,-99.99,,,0.13,weatherlink.com 1.10,2013-02-08 06:58:00,
2013-02-08 02:13:00,33.0,32.0,29.81,East,93,2.0,-999.0,94,-99.99,,,0.14,weatherlink.com 1.10,2013-02-08 07:13:00,
2013-02-08 02:28:00,33.2,32.0,29.82,ENE,72,2.0,-999.0,94,-99.99,,,0.01,weatherlink.com 1.10,2013-02-08 07:28:00,
2013-02-08 02:43:00,33.2,32.0,29.81,NE,54,3.0,-999.0,94,-99.99,,,0.03,weatherlink.com 1.10,2013-02-08 07:43:00,
2013-02-08 02:58:00,33.2,32.0,29.80,ENE,68,2.0,-999.0,94,-99.99,,,0.05,weatherlink.com 1.10,2013-02-08 07:58:00,
2013-02-08 03:13:00,33.3,32.0,29.80,NE,37,0.0,-999.0,94,-99.99,,,0.06,weatherlink.com 1.10,2013-02-08 08:13:00,
2013-02-08 03:28:00,33.3,32.0,29.79,ENE,65,2.0,-999.0,95,-99.99,,,0.06,weatherlink.com 1.10,2013-02-08 08:28:00,
2013-02-08 03:43:00,33.2,32.0,29.79,North,360,1.0,-999.0,95,-99.99,,,0.06,weatherlink.com 1.10,2013-02-08 08:43:00,
2013-02-08 03:58:00,33.0,32.0,29.79,NNW,327,0.0,-999.0,95,-99.99,,,0.06,weatherlink.com 1.10,2013-02-08 08:58:00,
2013-02-08 04:13:00,32.9,32.0,29.78,NNW,334,0.0,-999.0,95,-99.99,,,0.06,weatherlink.com 1.10,2013-02-08 09:13:00,
2013-02-08 04:28:00,32.7,32.0,29.79,NW,320,1.0,-999.0,95,-99.99,,,0.06,weatherlink.com 1.10,2013-02-08 09:28:00,
2013-02-08 04:43:00,-999.0,-99.9,29.79,North,-999,-999.0,-999.0,-999,-99.99,,,0.06,weatherlink.com 1.10,2013-02-08 09:43:00,
2013-02-08 04:58:00,-999.0,-99.9,29.80,North,-999,-999.0,-999.0,-999,-99.99,,,0.06,weatherlink.com 1.10,2013-02-08 09:58:00,
2013-02-08 05:13:00,-999.0,-99.9,29.81,North,-999,-999.0,-999.0,-999,-99.99,,,0.06,weatherlink.com 1.10,2013-02-08 10:13:00,
2013-02-08 05:28:00,-999.0,-99.9,29.81,North,-999,-999.0,-999.0,-999,-99.99,,,0.06,weatherlink.com 1.10,2013-02-08 10:28:00,
2013-02-08 05:43:00,-999.0,-99.9,29.82,North,-999,-999.0,-999.0,-999,-99.99,,,0.06,weatherlink.com 1.10,2013-02-08 10:43:00,
2013-02-08 05:58:00,-999.0,-99.9,29.82,North,-999,-999.0,-999.0,-999,-99.99,,,0.06,weatherlink.com 1.10,2013-02-08 10:58:00,
2013-02-08 06:13:00,-999.0,-99.9,29.82,North,-999,-999.0,-999.0,-999,-99.99,,,0.06,weatherlink.com 1.10,2013-02-08 11:13:00,
2013-02-08 06:28:00,-999.0,-99.9,29.83,North,-999,-999.0,-999.0,-999,-99.99,,,0.06,weatherlink.com 1.10,2013-02-08 11:28:00,
2013-02-08 06:43:00,-999.0,-99.9,29.85,North,-999,-999.0,-999.0,-999,-99.99,,,0.06,weatherlink.com 1.10,2013-02-08 11:43:00,
2013-02-08 06:58:00,-999.0,-99.9,29.86,North,-999,-999.0,-999.0,-999,-99.99,,,0.06,weatherlink.com 1.10,2013-02-08 11:58:00,
2013-02-08 07:13:00,-999.0,-99.9,29.86,North,-999,-999.0,-999.0,-999,-99.99,,,0.06,weatherlink.com 1.10,2013-02-08 12:13:00,
2013-02-08 07:28:00,-999.0,-99.9,29.88,North,-999,-999.0,-999.0,-999,-99.99,,,0.06,weatherlink.com 1.10,2013-02-08 12:28:00,
2013-02-08 07:43:00,-999.0,-99.9,29.89,North,-999,-999.0,-999.0,-999,-99.99,,,0.06,weatherlink.com 1.10,2013-02-08 12:43:00,
2013-02-08 07:58:00,-999.0,-99.9,29.89,North,-999,-999.0,-999.0,-999,-99.99,,,0.06,weatherlink.com 1.10,2013-02-08 12:58:00,
2013-02-08 08:13:00,-999.0,-99.9,29.90,North,-999,-999.0,-999.0,-999,-99.99,,,0.06,weatherlink.com 1.10,2013-02-08 13:13:00,
2013-02-08 08:28:00,-999.0,-99.9,29.91,North,-999,-999.0,-999.0,-999,-99.99,,,0.06,weatherlink.com 1.10,2013-02-08 13:28:00,
2013-02-08 08:43:00,30.5,-99.9,29.92,NW,321,5.0,-999.0,-999,-99.99,,,0.06,weatherlink.com 1.10,2013-02-08 13:43:00,
2013-02-08 08:58:00,30.3,29.0,29.93,NW,320,6.0,-999.0,95,-99.99,,,0.06,weatherlink.com 1.10,2013-02-08 13:58:00,
2013-02-08 09:13:00,30.2,29.0,29.95,NW,315,7.0,-999.0,95,-99.99,,,0.06,weatherlink.com 1.10,2013-02-08 14:13:00,
2013-02-08 09:28:00,30.0,29.0,29.96,NW,316,7.0,-999.0,94,-99.99,,,0.06,weatherlink.com 1.10,2013-02-08 14:28:00,
2013-02-08 09:43:00,30.3,28.0,29.97,ENE,58,6.0,-999.0,92,-99.99,,,0.06,weatherlink.com 1.10,2013-02-08 14:43:00,
2013-02-08 09:58:00,30.2,28.0,29.98,NW,308,5.0,-999.0,90,-99.99,,,0.06,weatherlink.com 1.10,2013-02-08 14:58:00,
2013-02-08 10:13:00,30.3,27.0,29.99,NNE,20,8.0,-999.0,88,-99.99,,,0.06,weatherlink.com 1.10,2013-02-08 15:13:00,
2013-02-08 10:28:00,30.5,27.0,30.00,WNW,290,5.0,-999.0,88,-99.99,,,0.06,weatherlink.com 1.10,2013-02-08 15:28:00,
2013-02-08 10:43:00,30.4,27.0,30.02,NNW,333,12.0,-999.0,86,-99.99,,,0.06,weatherlink.com 1.10,2013-02-08 15:43:00,
2013-02-08 10:58:00,30.5,27.0,30.03,NW,315,9.0,-999.0,85,-99.99,,,0.06,weatherlink.com 1.10,2013-02-08 15:58:00,
2013-02-08 11:13:00,30.6,27.0,30.04,NW,307,5.0,-999.0,85,-99.99,,,0.06,weatherlink.com 1.10,2013-02-08 16:13:00,
2013-02-08 11:28:00,29.8,26.0,30.06,WNW,302,8.0,-999.0,84,-99.99,,,0.06,weatherlink.com 1.10,2013-02-08 16:28:00,
2013-02-08 11:43:00,29.8,26.0,30.07,West,281,11.0,-999.0,84,-99.99,,,0.06,weatherlink.com 1.10,2013-02-08 16:43:00,
2013-02-08 11:58:00,29.8,25.0,30.07,NW,315,10.0,-999.0,83,-99.99,,,0.06,weatherlink.com 1.10,2013-02-08 16:58:00,
2013-02-08 12:13:00,29.0,25.0,30.09,WNW,287,6.0,-999.0,83,-99.99,,,0.06,weatherlink.com 1.10,2013-02-08 17:13:00,
2013-02-08 12:28:00,28.8,25.0,30.09,NW,323,7.0,-999.0,84,-99.99,,,0.06,weatherlink.com 1.10,2013-02-08 17:28:00,
2013-02-08 12:43:00,28.4,24.0,30.10,NW,305,11.0,-999.0,83,-99.99,,,0.06,weatherlink.com 1.10,2013-02-08 17:43:00,
2013-02-08 12:58:00,28.2,24.0,30.11,NNW,327,7.0,-999.0,83,-99.99,,,0.06,weatherlink.com 1.10,2013-02-08 17:58:00,
2013-02-08 13:13:00,28.2,24.0,30.12,WNW,298,10.0,-999.0,83,-99.99,,,0.06,weatherlink.com 1.10,2013-02-08 18:13:00,
2013-02-08 13:28:00,28.0,24.0,30.12,WNW,293,8.0,-999.0,83,-99.99,,,0.06,weatherlink.com 1.10,2013-02-08 18:28:00,
2013-02-08 13:43:00,28.1,23.0,30.13,NW,308,6.0,-999.0,82,-99.99,,,0.06,weatherlink.com 1.10,2013-02-08 18:43:00,
2013-02-08 13:58:00,28.1,23.0,30.13,NW,307,7.0,-999.0,81,-99.99,,,0.06,weatherlink.com 1.10,2013-02-08 18:58:00,
2013-02-08 14:13:00,28.1,23.0,30.14,NW,325,8.0,-999.0,82,-99.99,,,0.06,weatherlink.com 1.10,2013-02-08 19:13:00,
2013-02-08 14:28:00,28.0,24.0,30.14,NW,304,12.0,-999.0,83,-99.99,,,0.06,weatherlink.com 1.10,2013-02-08 19:28:00,
2013-02-08 14:43:00,27.9,23.0,30.15,NW,315,10.0,-999.0,83,-99.99,,,0.06,weatherlink.com 1.10,2013-02-08 19:43:00,
2013-02-08 14:58:00,27.7,23.0,30.16,WNW,290,5.0,-999.0,82,-99.99,,,0.06,weatherlink.com 1.10,2013-02-08 19:58:00,
2013-02-08 15:13:00,27.8,23.0,30.16,NW,321,8.0,-999.0,82,-99.99,,,0.06,weatherlink.com 1.10,2013-02-08 20:13:00,
2013-02-08 15:28:00,27.9,23.0,30.17,NW,307,5.0,-999.0,82,-99.99,,,0.06,weatherlink.com 1.10,2013-02-08 20:28:00,
2013-02-08 15:43:00,27.9,23.0,30.17,NW,325,8.0,-999.0,82,-99.99,,,0.06,weatherlink.com 1.10,2013-02-08 20:43:00,
2013-02-08 15:58:00,27.9,23.0,30.18,North,349,6.0,-999.0,82,-99.99,,,0.06,weatherlink.com 1.10,2013-02-08 20:58:00,
2013-02-08 16:13:00,27.9,23.0,30.19,NW,319,5.0,-999.0,82,-99.99,,,0.06,weatherlink.com 1.10,2013-02-08 21:13:00,
2013-02-08 16:28:00,28.0,23.0,30.20,NNW,335,4.0,-999.0,82,-99.99,,,0.06,weatherlink.com 1.10,2013-02-08 21:28:00,
2013-02-08 16:43:00,28.0,23.0,30.22,NW,325,3.0,-999.0,81,-99.99,,,0.06,weatherlink.com 1.10,2013-02-08 21:43:00,
2013-02-08 16:58:00,28.0,23.0,30.23,NW,314,5.0,-999.0,82,-99.99,,,0.06,weatherlink.com 1.10,2013-02-08 21:58:00,
2013-02-08 17:13:00,28.0,23.0,30.24,NNW,340,7.0,-999.0,82,-99.99,,,0.06,weatherlink.com 1.10,2013-02-08 22:13:00,
2013-02-08 17:28:00,27.8,22.0,30.24,NW,315,10.0,-999.0,80,-99.99,,,0.06,weatherlink.com 1.10,2013-02-08 22:28:00,
2013-02-08 17:43:00,27.5,22.0,30.25,NNW,338,6.0,-999.0,78,-99.99,,,0.06,weatherlink.com 1.10,2013-02-08 22:43:00,
2013-02-08 17:58:00,27.3,22.0,30.26,NW,316,9.0,-999.0,79,-99.99,,,0.06,weatherlink.com 1.10,2013-02-08 22:58:00,
2013-02-08 18:13:00,27.3,22.0,30.27,NW,326,4.0,-999.0,80,-99.99,,,0.06,weatherlink.com 1.10,2013-02-08 23:13:00,
2013-02-08 18:28:00,27.1,22.0,30.28,NW,316,3.0,-999.0,80,-99.99,,,0.06,weatherlink.com 1.10,2013-02-08 23:28:00,
2013-02-08 18:43:00,26.5,21.0,30.28,North,356,2.0,-999.0,81,-99.99,,,0.06,weatherlink.com 1.10,2013-02-08 23:43:00,
2013-02-08 18:58:00,26.2,21.0,30.29,NW,308,2.0,-999.0,81,-99.99,,,0.06,weatherlink.com 1.10,2013-02-08 23:58:00,
2013-02-08 19:13:00,25.7,21.0,30.30,NW,311,1.0,-999.0,81,-99.99,,,0.06,weatherlink.com 1.10,2013-02-09 00:13:00,
2013-02-08 19:28:00,25.4,20.0,30.31,NW,323,2.0,-999.0,81,-99.99,,,0.06,weatherlink.com 1.10,2013-02-09 00:28:00,
2013-02-08 19:43:00,25.0,20.0,30.31,NW,326,1.0,-999.0,81,-99.99,,,0.06,weatherlink.com 1.10,2013-02-09 00:43:00,
2013-02-08 19:58:00,24.8,19.0,30.32,NW,315,1.0,-999.0,80,-99.99,,,0.06,weatherlink.com 1.10,2013-02-09 00:58:00,
2013-02-08 20:13:00,24.8,19.0,30.33,NNW,340,3.0,-999.0,80,-99.99,,,0.06,weatherlink.com 1.10,2013-02-09 01:13:00,
2013-02-08 20:28:00,24.9,20.0,30.34,NW,318,0.0,-999.0,80,-99.99,,,0.06,weatherlink.com 1.10,2013-02-09 01:28:00,
2013-02-08 20:43:00,24.2,19.0,30.34,NNE,15,3.0,-999.0,81,-99.99,,,0.06,weatherlink.com 1.10,2013-02-09 01:43:00,
2013-02-08 20:58:00,24.5,19.0,30.34,NNW,347,4.0,-999.0,80,-99.99,,,0.06,weatherlink.com 1.10,2013-02-09 01:58:00,
2013-02-08 21:13:00,23.8,19.0,30.34,NNW,327,3.0,-999.0,81,-99.99,,,0.06,weatherlink.com 1.10,2013-02-09 02:13:00,
2013-02-08 21:28:00,23.3,18.0,30.35,NNW,345,1.0,-999.0,81,-99.99,,,0.06,weatherlink.com 1.10,2013-02-09 02:28:00,
2013-02-08 21:58:00,22.3,18.0,30.36,NW,307,2.0,-999.0,83,-99.99,,,0.06,weatherlink.com 1.10,2013-02-09 02:58:00,
2013-02-08 22:14:00,21.7,17.0,30.37,WNW,288,0.0,-999.0,83,-99.99,,,0.06,weatherlink.com 1.10,2013-02-09 03:14:00,
2013-02-08 22:28:00,21.0,17.0,30.37,WNW,302,1.0,-999.0,85,-99.99,,,0.06,weatherlink.com 1.10,2013-02-09 03:28:00,
2013-02-08 22:43:00,20.5,17.0,30.37,WNW,283,1.0,-999.0,86,-99.99,,,0.06,weatherlink.com 1.10,2013-02-09 03:43:00,
2013-02-08 22:58:00,20.1,17.0,30.38,WNW,295,0.0,-999.0,86,-99.99,,,0.06,weatherlink.com 1.10,2013-02-09 03:58:00,
2013-02-08 23:14:00,20.1,17.0,30.38,WNW,297,2.0,-999.0,86,-99.99,,,0.06,weatherlink.com 1.10,2013-02-09 04:14:00,
2013-02-08 23:28:00,20.0,17.0,30.38,WNW,300,2.0,-999.0,87,-99.99,,,0.06,weatherlink.com 1.10,2013-02-09 04:28:00,
2013-02-08 23:43:00,20.0,17.0,30.39,WNW,297,2.0,-999.0,87,-99.99,,,0.06,weatherlink.com 1.10,2013-02-09 04:43:00,
2013-02-08 23:58:00,19.7,17.0,30.39,WNW,295,1.0,-999.0,87,-99.99,,,0.06,weatherlink.com 1.10,2013-02-09 04:58:00,